Time,TemperatureF,DewpointF,PressureIn,WindDirection,WindDirectionDegrees,WindSpeedMPH,WindSpeedGustMPH,Humidity,HourlyPrecipIn,Conditions,Clouds,dailyrainin,SoftwareType,DateUTC
2013-03-30 00:00:00,42.6,37.5,29.94,South,178,3.0,4.0,82,0.00,,,0.00,vanprod-2.3,2013-03-30 05:00:00,
2013-03-30 00:05:00,42.6,37.5,29.93,South,178,4.0,4.0,82,0.00,,,0.00,vanprod-2.3,2013-03-30 05:05:00,
2013-03-30 00:10:00,42.4,37.3,29.93,South,178,4.0,6.0,82,0.00,,,0.00,vanprod-2.3,2013-03-30 05:10:00,
2013-03-30 00:15:00,42.1,37.0,29.93,South,178,4.0,5.0,82,0.00,,,0.00,vanprod-2.3,2013-03-30 05:15:00,
2013-03-30 00:20:00,42.0,37.2,29.92,South,178,4.0,5.0,83,0.00,,,0.00,vanprod-2.3,2013-03-30 05:20:00,
2013-03-30 00:25:00,41.6,36.8,29.92,South,178,3.0,3.0,83,0.00,,,0.00,vanprod-2.3,2013-03-30 05:25:00,
2013-03-30 00:30:00,41.3,36.5,29.92,South,178,3.0,3.0,83,0.00,,,0.00,vanprod-2.3,2013-03-30 05:30:00,
2013-03-30 00:35:00,41.3,36.5,29.92,South,176,5.0,5.0,83,0.00,,,0.00,vanprod-2.3,2013-03-30 05:35:00,
2013-03-30 00:40:00,41.1,36.6,29.91,South,175,5.0,5.0,84,0.00,,,0.00,vanprod-2.3,2013-03-30 05:40:00,
2013-03-30 00:45:00,41.0,36.5,29.90,South,176,4.0,4.0,84,0.00,,,0.00,vanprod-2.3,2013-03-30 05:45:00,
2013-03-30 00:50:00,40.8,36.0,29.90,South,174,4.0,4.0,83,0.00,,,0.00,vanprod-2.3,2013-03-30 05:50:00,
2013-03-30 00:55:00,40.7,36.3,29.90,South,172,4.0,4.0,84,0.00,,,0.00,vanprod-2.3,2013-03-30 05:55:00,
2013-03-30 01:00:00,40.7,35.9,29.90,South,176,5.0,5.0,83,0.00,,,0.00,vanprod-2.3,2013-03-30 06:00:00,
2013-03-30 01:05:00,40.6,35.9,29.89,South,175,4.0,4.0,83,0.00,,,0.00,vanprod-2.3,2013-03-30 06:05:00,
2013-03-30 01:10:00,40.7,35.9,29.89,South,175,4.0,4.0,83,0.00,,,0.00,vanprod-2.3,2013-03-30 06:10:00,
2013-03-30 01:15:00,40.8,36.0,29.89,South,174,5.0,5.0,83,0.00,,,0.00,vanprod-2.3,2013-03-30 06:15:00,
2013-03-30 01:20:00,41.0,35.9,29.89,South,174,4.0,4.0,82,0.00,,,0.00,vanprod-2.3,2013-03-30 06:20:00,
2013-03-30 01:25:00,40.8,36.0,29.89,South,174,3.0,3.0,83,0.00,,,0.00,vanprod-2.3,2013-03-30 06:25:00,
2013-03-30 01:30:00,40.8,35.7,29.89,South,174,3.0,3.0,82,0.00,,,0.00,vanprod-2.3,2013-03-30 06:30:00,
2013-03-30 01:35:00,40.7,35.6,29.89,South,174,2.0,3.0,82,0.00,,,0.00,vanprod-2.3,2013-03-30 06:35:00,
2013-03-30 01:40:00,40.7,35.6,29.89,South,174,2.0,4.0,82,0.00,,,0.00,vanprod-2.3,2013-03-30 06:40:00,
2013-03-30 01:45:00,40.6,35.5,29.89,South,174,2.0,2.0,82,0.00,,,0.00,vanprod-2.3,2013-03-30 06:45:00,
2013-03-30 01:50:00,40.6,35.5,29.89,South,174,2.0,3.0,82,0.00,,,0.00,vanprod-2.3,2013-03-30 06:50:00,
2013-03-30 01:55:00,40.6,35.5,29.90,South,174,1.0,2.0,82,0.00,,,0.00,vanprod-2.3,2013-03-30 06:55:00,
2013-03-30 02:00:00,40.6,35.5,29.90,South,174,1.0,0.0,82,0.00,,,0.00,vanprod-2.3,2013-03-30 07:00:00,
2013-03-30 02:05:00,40.6,35.5,29.90,South,174,0.0,0.0,82,0.00,,,0.00,vanprod-2.3,2013-03-30 07:05:00,
2013-03-30 02:10:00,40.6,35.2,29.90,South,174,0.0,0.0,81,0.00,,,0.00,vanprod-2.3,2013-03-30 07:10:00,
2013-03-30 02:15:00,40.4,35.0,29.90,South,174,0.0,2.0,81,0.00,,,0.00,vanprod-2.3,2013-03-30 07:15:00,
2013-03-30 02:20:00,40.6,35.2,29.91,South,174,0.0,0.0,81,0.00,,,0.00,vanprod-2.3,2013-03-30 07:20:00,
2013-03-30 02:25:00,40.6,35.2,29.91,South,174,0.0,0.0,81,0.00,,,0.00,vanprod-2.3,2013-03-30 07:25:00,
2013-03-30 02:30:00,40.7,35.3,29.92,South,174,0.0,0.0,81,0.00,,,0.00,vanprod-2.3,2013-03-30 07:30:00,
2013-03-30 02:35:00,40.6,34.9,29.93,South,174,1.0,2.0,80,0.00,,,0.00,vanprod-2.3,2013-03-30 07:35:00,
2013-03-30 02:40:00,40.3,34.9,29.92,South,174,1.0,3.0,81,0.00,,,0.00,vanprod-2.3,2013-03-30 07:40:00,
2013-03-30 02:45:00,40.8,35.4,29.92,South,174,0.0,0.0,81,0.00,,,0.00,vanprod-2.3,2013-03-30 07:45:00,
2013-03-30 02:50:00,41.0,35.6,29.92,South,174,1.0,2.0,81,0.00,,,0.00,vanprod-2.3,2013-03-30 07:50:00,
2013-03-30 02:55:00,41.1,35.7,29.92,South,174,0.0,0.0,81,0.00,,,0.00,vanprod-2.3,2013-03-30 07:55:00,
2013-03-30 03:00:00,41.0,35.6,29.91,South,174,0.0,0.0,81,0.00,,,0.00,vanprod-2.3,2013-03-30 08:00:00,
2013-03-30 03:05:00,41.0,36.2,29.91,South,174,1.0,3.0,83,0.00,,,0.00,vanprod-2.3,2013-03-30 08:05:00,
2013-03-30 03:10:00,41.6,37.1,29.90,South,174,2.0,0.0,84,0.00,,,0.00,vanprod-2.3,2013-03-30 08:10:00,
2013-03-30 03:15:00,41.8,37.3,29.89,South,174,2.0,0.0,84,0.00,,,0.00,vanprod-2.3,2013-03-30 08:15:00,
2013-03-30 03:20:00,41.6,37.1,29.89,South,174,1.0,0.0,84,0.00,,,0.00,vanprod-2.3,2013-03-30 08:20:00,
2013-03-30 03:25:00,41.4,36.9,29.89,South,174,0.0,0.0,84,0.00,,,0.00,vanprod-2.3,2013-03-30 08:25:00,
2013-03-30 03:30:00,41.3,37.4,29.89,South,174,0.0,0.0,86,0.00,,,0.00,vanprod-2.3,2013-03-30 08:30:00,
2013-03-30 03:35:00,41.3,37.4,29.90,South,174,1.0,0.0,86,0.00,,,0.00,vanprod-2.3,2013-03-30 08:35:00,
2013-03-30 03:40:00,41.1,37.5,29.90,South,174,0.0,0.0,87,0.00,,,0.00,vanprod-2.3,2013-03-30 08:40:00,
2013-03-30 03:45:00,41.3,37.7,29.90,South,174,0.0,0.0,87,0.00,,,0.00,vanprod-2.3,2013-03-30 08:45:00,
2013-03-30 03:50:00,41.4,37.8,29.89,South,174,0.0,0.0,87,0.00,,,0.00,vanprod-2.3,2013-03-30 08:50:00,
2013-03-30 03:55:00,41.4,37.8,29.89,South,174,0.0,0.0,87,0.00,,,0.00,vanprod-2.3,2013-03-30 08:55:00,
2013-03-30 04:00:00,41.1,37.2,29.89,South,174,0.0,0.0,86,0.00,,,0.00,vanprod-2.3,2013-03-30 09:00:00,
2013-03-30 04:05:00,40.8,36.9,29.90,South,174,0.0,0.0,86,0.00,,,0.00,vanprod-2.3,2013-03-30 09:05:00,
2013-03-30 04:10:00,40.7,37.4,29.89,South,174,0.0,0.0,88,0.00,,,0.00,vanprod-2.3,2013-03-30 09:10:00,
2013-03-30 04:15:00,40.6,37.3,29.90,South,174,0.0,0.0,88,0.00,,,0.00,vanprod-2.3,2013-03-30 09:15:00,
2013-03-30 04:20:00,40.6,37.9,29.90,South,174,0.0,0.0,90,0.00,,,0.00,vanprod-2.3,2013-03-30 09:20:00,
2013-03-30 04:25:00,40.8,38.4,29.90,South,174,0.0,0.0,91,0.00,,,0.00,vanprod-2.3,2013-03-30 09:25:00,
2013-03-30 04:30:00,41.1,38.7,29.90,South,174,0.0,0.0,91,0.00,,,0.00,vanprod-2.3,2013-03-30 09:30:00,
2013-03-30 04:34:00,41.1,38.7,29.90,South,174,0.0,0.0,91,0.00,,,0.00,vanprod-2.3,2013-03-30 09:34:00,
2013-03-30 04:39:00,41.0,38.3,29.90,South,174,0.0,0.0,90,0.00,,,0.00,vanprod-2.3,2013-03-30 09:39:00,
2013-03-30 04:44:00,40.7,38.0,29.90,South,174,0.0,0.0,90,0.00,,,0.00,vanprod-2.3,2013-03-30 09:44:00,
2013-03-30 04:49:00,40.7,38.0,29.90,South,174,0.0,0.0,90,0.00,,,0.00,vanprod-2.3,2013-03-30 09:49:00,
2013-03-30 04:54:00,40.3,37.6,29.90,South,174,0.0,0.0,90,0.00,,,0.00,vanprod-2.3,2013-03-30 09:54:00,
2013-03-30 04:59:00,40.0,37.3,29.90,South,174,0.0,0.0,90,0.00,,,0.00,vanprod-2.3,2013-03-30 09:59:00,
2013-03-30 05:04:00,40.0,37.3,29.90,South,174,0.0,0.0,90,0.00,,,0.00,vanprod-2.3,2013-03-30 10:04:00,
2013-03-30 05:09:00,39.7,37.0,29.90,South,174,0.0,0.0,90,0.00,,,0.00,vanprod-2.3,2013-03-30 10:09:00,
2013-03-30 05:14:00,39.4,36.7,29.90,South,174,0.0,0.0,90,0.00,,,0.00,vanprod-2.3,2013-03-30 10:14:00,
2013-03-30 05:19:00,39.1,36.4,29.90,South,174,0.0,0.0,90,0.00,,,0.00,vanprod-2.3,2013-03-30 10:19:00,
2013-03-30 05:24:00,38.8,36.1,29.90,South,174,0.0,0.0,90,0.00,,,0.00,vanprod-2.3,2013-03-30 10:24:00,
2013-03-30 05:29:00,38.7,36.3,29.90,South,174,0.0,0.0,91,0.00,,,0.00,vanprod-2.3,2013-03-30 10:29:00,
2013-03-30 05:34:00,38.4,36.0,29.90,South,174,1.0,0.0,91,0.00,,,0.00,vanprod-2.3,2013-03-30 10:34:00,
2013-03-30 05:39:00,38.4,36.0,29.90,South,174,0.0,0.0,91,0.00,,,0.00,vanprod-2.3,2013-03-30 10:39:00,
2013-03-30 05:44:00,38.7,36.6,29.90,South,174,0.0,0.0,92,0.00,,,0.00,vanprod-2.3,2013-03-30 10:44:00,
2013-03-30 05:49:00,39.0,36.9,29.90,South,174,0.0,0.0,92,0.00,,,0.00,vanprod-2.3,2013-03-30 10:49:00,
2013-03-30 05:54:00,39.1,37.0,29.90,South,174,0.0,2.0,92,0.00,,,0.00,vanprod-2.3,2013-03-30 10:54:00,
2013-03-30 05:59:00,38.8,36.4,29.90,South,174,1.0,1.0,91,0.00,,,0.00,vanprod-2.3,2013-03-30 10:59:00,
2013-03-30 06:04:00,38.4,36.0,29.90,South,174,0.0,0.0,91,0.00,,,0.00,vanprod-2.3,2013-03-30 11:04:00,
2013-03-30 06:09:00,38.6,36.5,29.90,South,174,1.0,2.0,92,0.00,,,0.00,vanprod-2.3,2013-03-30 11:09:00,
2013-03-30 06:14:00,38.8,36.7,29.90,South,174,1.0,0.0,92,0.00,,,0.00,vanprod-2.3,2013-03-30 11:14:00,
2013-03-30 06:19:00,39.0,36.9,29.90,South,174,0.0,1.0,92,0.00,,,0.00,vanprod-2.3,2013-03-30 11:19:00,
2013-03-30 06:24:00,39.3,37.4,29.90,South,174,0.0,0.0,93,0.00,,,0.00,vanprod-2.3,2013-03-30 11:24:00,
2013-03-30 06:29:00,39.7,37.6,29.90,South,174,0.0,0.0,92,0.00,,,0.00,vanprod-2.3,2013-03-30 11:29:00,
2013-03-30 06:34:00,39.8,37.7,29.90,South,179,3.0,3.0,92,0.00,,,0.00,vanprod-2.3,2013-03-30 11:34:00,
2013-03-30 06:39:00,40.0,37.6,29.90,South,179,1.0,0.0,91,0.00,,,0.00,vanprod-2.3,2013-03-30 11:39:00,
2013-03-30 06:44:00,39.8,37.1,29.90,South,179,0.0,0.0,90,0.00,,,0.00,vanprod-2.3,2013-03-30 11:44:00,
2013-03-30 06:49:00,39.6,36.9,29.90,South,179,1.0,1.0,90,0.00,,,0.00,vanprod-2.3,2013-03-30 11:49:00,
2013-03-30 06:54:00,39.3,36.6,29.90,South,179,2.0,0.0,90,0.00,,,0.00,vanprod-2.3,2013-03-30 11:54:00,
2013-03-30 06:59:00,39.0,36.3,29.91,South,179,1.0,0.0,90,0.00,,,0.00,vanprod-2.3,2013-03-30 11:59:00,
2013-03-30 07:04:00,38.8,36.1,29.92,South,179,1.0,0.0,90,0.00,,,0.00,vanprod-2.3,2013-03-30 12:04:00,
2013-03-30 07:09:00,38.4,35.7,29.92,South,179,2.0,2.0,90,0.00,,,0.00,vanprod-2.3,2013-03-30 12:09:00,
2013-03-30 07:14:00,38.1,35.4,29.92,SSW,202,1.0,5.0,90,0.00,,,0.00,vanprod-2.3,2013-03-30 12:14:00,
2013-03-30 07:19:00,37.8,35.1,29.92,SSW,209,3.0,7.0,90,0.00,,,0.00,vanprod-2.3,2013-03-30 12:19:00,
2013-03-30 07:24:00,37.5,34.8,29.92,SW,218,5.0,5.0,90,0.00,,,0.00,vanprod-2.3,2013-03-30 12:24:00,
2013-03-30 07:29:00,37.1,34.4,29.92,SW,223,4.0,5.0,90,0.00,,,0.00,vanprod-2.3,2013-03-30 12:29:00,
2013-03-30 07:34:00,36.5,33.9,29.92,WNW,282,4.0,4.0,90,0.00,,,0.00,vanprod-2.3,2013-03-30 12:34:00,
2013-03-30 07:39:00,36.0,33.6,29.93,WNW,285,3.0,3.0,91,0.00,,,0.00,vanprod-2.3,2013-03-30 12:39:00,
2013-03-30 07:44:00,35.1,32.7,29.93,WNW,285,3.0,7.0,91,0.00,,,0.00,vanprod-2.3,2013-03-30 12:44:00,
2013-03-30 07:49:00,34.2,32.1,29.93,WNW,291,3.0,3.0,92,0.00,,,0.00,vanprod-2.3,2013-03-30 12:49:00,
2013-03-30 07:54:00,33.6,31.8,29.93,NW,318,4.0,4.0,93,0.00,,,0.00,vanprod-2.3,2013-03-30 12:54:00,
2013-03-30 07:59:00,33.2,31.7,29.93,NW,318,5.0,5.0,94,0.00,,,0.00,vanprod-2.3,2013-03-30 12:59:00,
2013-03-30 08:04:00,33.0,31.5,29.93,NW,316,3.0,5.0,94,0.00,,,0.00,vanprod-2.3,2013-03-30 13:04:00,
2013-03-30 08:09:00,32.9,31.6,29.93,NW,316,1.0,0.0,95,0.00,,,0.00,vanprod-2.3,2013-03-30 13:09:00,
2013-03-30 08:14:00,32.7,31.4,29.93,NW,316,3.0,3.0,95,0.00,,,0.00,vanprod-2.3,2013-03-30 13:14:00,
2013-03-30 08:19:00,32.6,31.3,29.94,NW,316,3.0,8.0,95,0.00,,,0.00,vanprod-2.3,2013-03-30 13:19:00,
2013-03-30 08:24:00,32.6,31.3,29.94,NW,316,4.0,5.0,95,0.00,,,0.00,vanprod-2.3,2013-03-30 13:24:00,
2013-03-30 08:29:00,32.6,31.6,29.94,NW,308,3.0,3.0,96,0.00,,,0.00,vanprod-2.3,2013-03-30 13:29:00,
2013-03-30 08:34:00,32.6,31.6,29.93,NW,309,2.0,2.0,96,0.00,,,0.00,vanprod-2.3,2013-03-30 13:34:00,
2013-03-30 08:39:00,32.7,31.7,29.93,NW,309,4.0,7.0,96,0.00,,,0.00,vanprod-2.3,2013-03-30 13:39:00,
2013-03-30 08:44:00,32.7,31.7,29.94,NW,309,4.0,4.0,96,0.00,,,0.00,vanprod-2.3,2013-03-30 13:44:00,
2013-03-30 08:49:00,32.7,31.7,29.94,NW,311,5.0,5.0,96,0.00,,,0.00,vanprod-2.3,2013-03-30 13:49:00,
2013-03-30 08:54:00,32.7,31.7,29.94,NW,311,4.0,4.0,96,0.00,,,0.00,vanprod-2.3,2013-03-30 13:54:00,
2013-03-30 08:59:00,32.7,31.7,29.94,NW,311,3.0,3.0,96,0.00,,,0.00,vanprod-2.3,2013-03-30 13:59:00,
2013-03-30 09:04:00,32.7,31.7,29.95,NW,311,4.0,4.0,96,0.00,,,0.00,vanprod-2.3,2013-03-30 14:04:00,
2013-03-30 09:09:00,32.7,31.7,29.95,WNW,302,5.0,5.0,96,0.00,,,0.00,vanprod-2.3,2013-03-30 14:09:00,
2013-03-30 09:14:00,32.7,31.9,29.95,NW,304,4.0,6.0,97,0.00,,,0.00,vanprod-2.3,2013-03-30 14:14:00,
2013-03-30 09:19:00,32.7,31.9,29.95,NW,304,2.0,2.0,97,0.00,,,0.00,vanprod-2.3,2013-03-30 14:19:00,
2013-03-30 09:24:00,32.9,32.1,29.95,NW,311,5.0,5.0,97,0.00,,,0.00,vanprod-2.3,2013-03-30 14:24:00,
2013-03-30 09:29:00,32.9,32.1,29.95,NW,311,4.0,4.0,97,0.00,,,0.00,vanprod-2.3,2013-03-30 14:29:00,
2013-03-30 09:34:00,32.9,32.1,29.95,NW,311,3.0,5.0,97,0.00,,,0.00,vanprod-2.3,2013-03-30 14:34:00,
2013-03-30 09:39:00,33.0,32.2,29.95,NW,312,3.0,6.0,97,0.00,,,0.00,vanprod-2.3,2013-03-30 14:39:00,
2013-03-30 09:44:00,33.2,32.4,29.95,NW,312,2.0,3.0,97,0.00,,,0.00,vanprod-2.3,2013-03-30 14:44:00,
2013-03-30 09:49:00,33.3,32.5,29.95,NW,319,3.0,3.0,97,0.00,,,0.00,vanprod-2.3,2013-03-30 14:49:00,
2013-03-30 09:54:00,33.6,32.8,29.95,NW,319,2.0,3.0,97,0.00,,,0.00,vanprod-2.3,2013-03-30 14:54:00,
2013-03-30 09:59:00,33.8,33.0,29.95,NW,319,3.0,3.0,97,0.00,,,0.00,vanprod-2.3,2013-03-30 14:59:00,
2013-03-30 10:04:00,33.9,33.4,29.95,NW,319,2.0,3.0,98,0.00,,,0.00,vanprod-2.3,2013-03-30 15:04:00,
2013-03-30 10:09:00,34.1,33.6,29.95,NW,319,2.0,6.0,98,0.00,,,0.00,vanprod-2.3,2013-03-30 15:09:00,
2013-03-30 10:14:00,34.2,33.7,29.95,NW,318,3.0,3.0,98,0.00,,,0.00,vanprod-2.3,2013-03-30 15:14:00,
2013-03-30 10:19:00,34.4,33.9,29.95,NW,318,3.0,3.0,98,0.00,,,0.00,vanprod-2.3,2013-03-30 15:19:00,
2013-03-30 10:24:00,34.4,33.9,29.95,NW,318,3.0,4.0,98,0.00,,,0.00,vanprod-2.3,2013-03-30 15:24:00,
2013-03-30 10:29:00,34.4,33.9,29.95,NW,318,4.0,7.0,98,0.00,,,0.00,vanprod-2.3,2013-03-30 15:29:00,
2013-03-30 10:34:00,34.4,33.9,29.95,NW,318,4.0,4.0,98,0.00,,,0.00,vanprod-2.3,2013-03-30 15:34:00,
2013-03-30 10:39:00,34.4,33.9,29.95,NW,318,3.0,5.0,98,0.00,,,0.00,vanprod-2.3,2013-03-30 15:39:00,
2013-03-30 10:44:00,34.4,33.9,29.95,NW,318,4.0,8.0,98,0.00,,,0.00,vanprod-2.3,2013-03-30 15:44:00,
2013-03-30 10:49:00,34.4,33.9,29.95,NW,318,5.0,5.0,98,0.00,,,0.00,vanprod-2.3,2013-03-30 15:49:00,
2013-03-30 10:54:00,34.4,33.9,29.95,NW,318,2.0,2.0,98,0.00,,,0.00,vanprod-2.3,2013-03-30 15:54:00,
2013-03-30 10:59:00,34.5,34.0,29.95,NW,318,5.0,5.0,98,0.00,,,0.00,vanprod-2.3,2013-03-30 15:59:00,
2013-03-30 11:04:00,34.5,34.0,29.95,NW,318,3.0,6.0,98,0.00,,,0.00,vanprod-2.3,2013-03-30 16:04:00,
2013-03-30 11:09:00,34.5,34.0,29.95,NW,318,3.0,3.0,98,0.00,,,0.00,vanprod-2.3,2013-03-30 16:09:00,
2013-03-30 11:14:00,34.5,34.0,29.95,NW,318,4.0,4.0,98,0.00,,,0.00,vanprod-2.3,2013-03-30 16:14:00,
2013-03-30 11:19:00,34.8,34.3,29.95,NW,318,3.0,3.0,98,0.00,,,0.00,vanprod-2.3,2013-03-30 16:19:00,
2013-03-30 11:24:00,34.8,34.0,29.95,NW,318,4.0,5.0,97,0.00,,,0.00,vanprod-2.3,2013-03-30 16:24:00,
2013-03-30 11:29:00,35.1,34.3,29.95,NW,318,3.0,3.0,97,0.00,,,0.00,vanprod-2.3,2013-03-30 16:29:00,
2013-03-30 11:34:00,35.5,34.7,29.95,NW,318,3.0,3.0,97,0.00,,,0.00,vanprod-2.3,2013-03-30 16:34:00,
2013-03-30 11:39:00,36.0,35.2,29.95,NW,321,4.0,8.0,97,0.00,,,0.00,vanprod-2.3,2013-03-30 16:39:00,
2013-03-30 11:44:00,36.3,35.3,29.95,NW,322,4.0,4.0,96,0.00,,,0.00,vanprod-2.3,2013-03-30 16:44:00,
2013-03-30 11:49:00,37.0,35.4,29.95,NW,322,3.0,3.0,94,0.00,,,0.00,vanprod-2.3,2013-03-30 16:49:00,
2013-03-30 11:54:00,37.5,34.8,29.95,NW,322,3.0,3.0,90,0.00,,,0.00,vanprod-2.3,2013-03-30 16:54:00,
2013-03-30 11:59:00,38.1,35.2,29.95,NW,322,2.0,2.0,89,0.00,,,0.00,vanprod-2.3,2013-03-30 16:59:00,
2013-03-30 12:04:00,38.6,35.1,29.96,NW,322,3.0,3.0,87,0.00,,,0.00,vanprod-2.3,2013-03-30 17:04:00,
2013-03-30 12:09:00,38.8,35.0,29.96,NW,322,3.0,0.0,86,0.00,,,0.00,vanprod-2.3,2013-03-30 17:09:00,
2013-03-30 12:14:00,39.3,35.5,29.96,NW,322,2.0,0.0,86,0.00,,,0.00,vanprod-2.3,2013-03-30 17:14:00,
2013-03-30 12:19:00,39.6,35.2,29.95,NW,322,2.0,3.0,84,0.00,,,0.00,vanprod-2.3,2013-03-30 17:19:00,
2013-03-30 12:24:00,40.0,35.3,29.96,NW,322,3.0,7.0,83,0.00,,,0.00,vanprod-2.3,2013-03-30 17:24:00,
2013-03-30 12:29:00,40.3,35.3,29.95,NW,322,2.0,3.0,82,0.00,,,0.00,vanprod-2.3,2013-03-30 17:29:00,
2013-03-30 12:34:00,40.4,35.0,29.95,NW,322,4.0,4.0,81,0.00,,,0.00,vanprod-2.3,2013-03-30 17:34:00,
2013-03-30 12:39:00,40.6,34.9,29.95,NW,322,4.0,10.0,80,0.00,,,0.00,vanprod-2.3,2013-03-30 17:39:00,
2013-03-30 12:44:00,40.8,35.4,29.95,NW,322,2.0,6.0,81,0.00,,,0.00,vanprod-2.3,2013-03-30 17:44:00,
2013-03-30 12:49:00,41.3,35.3,29.96,NW,322,2.0,3.0,79,0.00,,,0.00,vanprod-2.3,2013-03-30 17:49:00,
2013-03-30 12:54:00,41.7,35.7,29.95,NW,322,2.0,5.0,79,0.00,,,0.00,vanprod-2.3,2013-03-30 17:54:00,
2013-03-30 12:59:00,42.1,35.4,29.95,NW,322,2.0,3.0,77,0.00,,,0.00,vanprod-2.3,2013-03-30 17:59:00,
2013-03-30 13:04:00,42.3,35.6,29.95,NW,322,3.0,5.0,77,0.00,,,0.00,vanprod-2.3,2013-03-30 18:04:00,
2013-03-30 13:09:00,42.4,35.4,29.95,NW,313,5.0,8.0,76,0.00,,,0.00,vanprod-2.3,2013-03-30 18:09:00,
2013-03-30 13:14:00,42.6,35.9,29.95,NW,313,4.0,4.0,77,0.00,,,0.00,vanprod-2.3,2013-03-30 18:14:00,
2013-03-30 13:19:00,42.8,35.1,29.95,NW,312,3.0,3.0,74,0.00,,,0.00,vanprod-2.3,2013-03-30 18:19:00,
2013-03-30 13:24:00,43.0,35.3,29.95,NW,315,4.0,4.0,74,0.00,,,0.00,vanprod-2.3,2013-03-30 18:24:00,
2013-03-30 13:29:00,43.1,35.7,29.95,NW,315,3.0,3.0,75,0.00,,,0.00,vanprod-2.3,2013-03-30 18:29:00,
2013-03-30 13:34:00,43.3,35.6,29.95,NW,315,4.0,4.0,74,0.00,,,0.00,vanprod-2.3,2013-03-30 18:34:00,
2013-03-30 13:39:00,43.4,35.7,29.95,NW,308,4.0,5.0,74,0.00,,,0.00,vanprod-2.3,2013-03-30 18:39:00,
2013-03-30 13:44:00,43.7,36.3,29.95,NW,306,3.0,4.0,75,0.00,,,0.00,vanprod-2.3,2013-03-30 18:44:00,
2013-03-30 13:49:00,43.3,35.9,29.95,NNW,329,4.0,8.0,75,0.00,,,0.00,vanprod-2.3,2013-03-30 18:49:00,
2013-03-30 13:54:00,42.7,35.3,29.95,North,353,5.0,5.0,75,0.00,,,0.00,vanprod-2.3,2013-03-30 18:54:00,
2013-03-30 13:59:00,42.4,35.1,29.95,North,353,3.0,7.0,75,0.00,,,0.00,vanprod-2.3,2013-03-30 18:59:00,
2013-03-30 14:04:00,42.6,35.2,29.95,NNW,345,5.0,8.0,75,0.00,,,0.00,vanprod-2.3,2013-03-30 19:04:00,
2013-03-30 14:09:00,42.6,35.2,29.95,NNW,344,5.0,5.0,75,0.00,,,0.00,vanprod-2.3,2013-03-30 19:09:00,
2013-03-30 14:14:00,42.6,35.6,29.95,NNW,340,4.0,5.0,76,0.00,,,0.00,vanprod-2.3,2013-03-30 19:14:00,
2013-03-30 14:19:00,42.6,35.2,29.95,North,349,6.0,6.0,75,0.00,,,0.00,vanprod-2.3,2013-03-30 19:19:00,
2013-03-30 14:24:00,42.6,35.2,29.95,NNW,345,4.0,11.0,75,0.00,,,0.00,vanprod-2.3,2013-03-30 19:24:00,
2013-03-30 14:29:00,42.3,35.0,29.95,NNW,340,3.0,3.0,75,0.00,,,0.00,vanprod-2.3,2013-03-30 19:29:00,
2013-03-30 14:34:00,42.1,35.1,29.95,NNW,335,6.0,6.0,76,0.00,,,0.00,vanprod-2.3,2013-03-30 19:34:00,
2013-03-30 14:39:00,42.3,35.3,29.95,NNW,335,4.0,4.0,76,0.00,,,0.00,vanprod-2.3,2013-03-30 19:39:00,
2013-03-30 14:44:00,42.3,35.3,29.95,NNW,332,3.0,3.0,76,0.00,,,0.00,vanprod-2.3,2013-03-30 19:44:00,
2013-03-30 14:49:00,42.6,35.2,29.95,NNW,332,4.0,6.0,75,0.00,,,0.00,vanprod-2.3,2013-03-30 19:49:00,
2013-03-30 14:54:00,42.8,35.4,29.95,NNW,330,4.0,5.0,75,0.00,,,0.00,vanprod-2.3,2013-03-30 19:54:00,
2013-03-30 14:59:00,42.6,35.2,29.95,NNW,330,4.0,5.0,75,0.00,,,0.00,vanprod-2.3,2013-03-30 19:59:00,
2013-03-30 15:04:00,42.4,35.1,29.94,NW,326,6.0,7.0,75,0.00,,,0.00,vanprod-2.3,2013-03-30 20:04:00,
2013-03-30 15:09:00,42.4,35.1,29.94,NW,326,6.0,6.0,75,0.00,,,0.00,vanprod-2.3,2013-03-30 20:09:00,
2013-03-30 15:14:00,42.6,35.2,29.94,NW,323,4.0,5.0,75,0.00,,,0.00,vanprod-2.3,2013-03-30 20:14:00,
2013-03-30 15:19:00,42.7,35.3,29.95,North,350,3.0,3.0,75,0.00,,,0.00,vanprod-2.3,2013-03-30 20:19:00,
2013-03-30 15:24:00,42.6,34.9,29.95,North,349,8.0,8.0,74,0.00,,,0.00,vanprod-2.3,2013-03-30 20:24:00,
2013-03-30 15:29:00,42.1,34.8,29.95,North,356,5.0,5.0,75,0.00,,,0.00,vanprod-2.3,2013-03-30 20:29:00,
2013-03-30 15:34:00,42.1,34.8,29.94,North,356,5.0,5.0,75,0.00,,,0.00,vanprod-2.3,2013-03-30 20:34:00,
2013-03-30 15:39:00,42.0,34.7,29.94,North,349,6.0,6.0,75,0.00,,,0.00,vanprod-2.3,2013-03-30 20:39:00,
2013-03-30 15:44:00,42.0,34.7,29.94,NNW,338,6.0,6.0,75,0.00,,,0.00,vanprod-2.3,2013-03-30 20:44:00,
2013-03-30 15:49:00,42.3,35.3,29.94,NNW,336,3.0,3.0,76,0.00,,,0.00,vanprod-2.3,2013-03-30 20:49:00,
2013-03-30 15:54:00,42.4,35.1,29.94,NNW,340,5.0,6.0,75,0.00,,,0.00,vanprod-2.3,2013-03-30 20:54:00,
2013-03-30 15:59:00,42.1,35.1,29.94,NW,323,4.0,4.0,76,0.00,,,0.00,vanprod-2.3,2013-03-30 20:59:00,
2013-03-30 16:04:00,42.1,34.8,29.94,NW,323,5.0,11.0,75,0.00,,,0.00,vanprod-2.3,2013-03-30 21:04:00,
2013-03-30 16:09:00,42.0,35.0,29.94,NW,322,3.0,3.0,76,0.00,,,0.00,vanprod-2.3,2013-03-30 21:09:00,
2013-03-30 16:14:00,42.1,35.1,29.94,NW,322,4.0,6.0,76,0.00,,,0.00,vanprod-2.3,2013-03-30 21:14:00,
2013-03-30 16:19:00,42.3,35.3,29.95,NW,322,5.0,5.0,76,0.00,,,0.00,vanprod-2.3,2013-03-30 21:19:00,
2013-03-30 16:24:00,42.3,35.3,29.95,NW,322,5.0,7.0,76,0.00,,,0.00,vanprod-2.3,2013-03-30 21:24:00,
2013-03-30 16:29:00,42.0,35.0,29.95,NW,322,3.0,3.0,76,0.00,,,0.00,vanprod-2.3,2013-03-30 21:29:00,
2013-03-30 16:34:00,42.1,34.8,29.95,NW,324,5.0,8.0,75,0.00,,,0.00,vanprod-2.3,2013-03-30 21:34:00,
2013-03-30 16:39:00,42.1,34.8,29.95,NNW,329,5.0,5.0,75,0.00,,,0.00,vanprod-2.3,2013-03-30 21:39:00,
2013-03-30 16:44:00,42.0,35.3,29.95,NNW,329,4.0,8.0,77,0.00,,,0.00,vanprod-2.3,2013-03-30 21:44:00,
2013-03-30 16:49:00,42.0,35.3,29.95,NNW,328,3.0,3.0,77,0.00,,,0.00,vanprod-2.3,2013-03-30 21:49:00,
2013-03-30 16:54:00,42.1,35.1,29.95,NNW,328,3.0,4.0,76,0.00,,,0.00,vanprod-2.3,2013-03-30 21:54:00,
2013-03-30 16:59:00,42.1,35.1,29.95,NNW,327,3.0,6.0,76,0.00,,,0.00,vanprod-2.3,2013-03-30 21:59:00,
2013-03-30 17:04:00,41.7,35.0,29.95,North,352,5.0,6.0,77,0.00,,,0.00,vanprod-2.3,2013-03-30 22:04:00,
2013-03-30 17:09:00,41.3,34.6,29.95,NNW,347,5.0,8.0,77,0.00,,,0.00,vanprod-2.3,2013-03-30 22:09:00,
2013-03-30 17:14:00,41.0,34.4,29.95,NNW,342,4.0,4.0,77,0.00,,,0.00,vanprod-2.3,2013-03-30 22:14:00,
2013-03-30 17:19:00,40.6,34.0,29.95,NNW,332,5.0,6.0,77,0.00,,,0.00,vanprod-2.3,2013-03-30 22:19:00,
2013-03-30 17:24:00,40.3,33.7,29.95,NNW,331,5.0,8.0,77,0.00,,,0.00,vanprod-2.3,2013-03-30 22:24:00,
2013-03-30 17:29:00,40.0,33.7,29.95,NNW,330,5.0,5.0,78,0.00,,,0.00,vanprod-2.3,2013-03-30 22:29:00,
2013-03-30 17:34:00,40.0,33.7,29.95,NNW,329,5.0,6.0,78,0.00,,,0.00,vanprod-2.3,2013-03-30 22:34:00,
2013-03-30 17:39:00,39.8,33.5,29.95,NW,325,3.0,5.0,78,0.00,,,0.00,vanprod-2.3,2013-03-30 22:39:00,
2013-03-30 17:44:00,39.8,33.5,29.95,NW,325,3.0,3.0,78,0.00,,,0.00,vanprod-2.3,2013-03-30 22:44:00,
2013-03-30 17:49:00,40.0,33.4,29.95,NNW,328,5.0,5.0,77,0.00,,,0.00,vanprod-2.3,2013-03-30 22:49:00,
2013-03-30 17:54:00,39.7,33.4,29.95,NNW,328,4.0,5.0,78,0.00,,,0.00,vanprod-2.3,2013-03-30 22:54:00,
2013-03-30 17:59:00,39.4,32.8,29.95,NNW,337,3.0,3.0,77,0.00,,,0.00,vanprod-2.3,2013-03-30 22:59:00,
2013-03-30 18:04:00,39.4,33.1,29.95,NNW,337,4.0,5.0,78,0.00,,,0.00,vanprod-2.3,2013-03-30 23:04:00,
2013-03-30 18:09:00,39.4,33.1,29.95,NNW,336,5.0,7.0,78,0.00,,,0.00,vanprod-2.3,2013-03-30 23:09:00,
2013-03-30 18:14:00,38.8,32.5,29.95,NNW,336,5.0,5.0,78,0.00,,,0.00,vanprod-2.3,2013-03-30 23:14:00,
2013-03-30 18:19:00,38.7,32.8,29.95,NW,319,4.0,5.0,79,0.00,,,0.00,vanprod-2.3,2013-03-30 23:19:00,
2013-03-30 18:24:00,38.6,33.0,29.95,NW,316,4.0,5.0,80,0.00,,,0.00,vanprod-2.3,2013-03-30 23:24:00,
2013-03-30 18:29:00,38.4,32.8,29.95,NW,318,4.0,7.0,80,0.00,,,0.00,vanprod-2.3,2013-03-30 23:29:00,
2013-03-30 18:34:00,38.1,32.8,29.95,NW,319,4.0,4.0,81,0.00,,,0.00,vanprod-2.3,2013-03-30 23:34:00,
2013-03-30 18:39:00,37.8,32.8,29.94,NW,319,4.0,5.0,82,0.00,,,0.00,vanprod-2.3,2013-03-30 23:39:00,
2013-03-30 18:44:00,37.5,32.8,29.94,NW,320,2.0,0.0,83,0.00,,,0.00,vanprod-2.3,2013-03-30 23:44:00,
2013-03-30 18:49:00,37.4,32.7,29.94,NW,320,2.0,2.0,83,0.00,,,0.00,vanprod-2.3,2013-03-30 23:49:00,
2013-03-30 18:54:00,37.3,32.6,29.94,NW,320,2.0,2.0,83,0.00,,,0.00,vanprod-2.3,2013-03-30 23:54:00,
2013-03-30 18:59:00,37.1,32.7,29.95,NW,320,4.0,6.0,84,0.00,,,0.00,vanprod-2.3,2013-03-30 23:59:00,
2013-03-30 19:04:00,36.8,32.7,29.95,NW,320,4.0,6.0,85,0.00,,,0.00,vanprod-2.3,2013-03-31 00:04:00,
2013-03-30 19:09:00,36.4,32.6,29.95,NW,320,3.0,5.0,86,0.00,,,0.00,vanprod-2.3,2013-03-31 00:09:00,
2013-03-30 19:14:00,36.0,32.2,29.95,NW,319,3.0,6.0,86,0.00,,,0.00,vanprod-2.3,2013-03-31 00:14:00,
2013-03-30 19:19:00,35.5,32.0,29.95,NW,315,3.0,3.0,87,0.00,,,0.00,vanprod-2.3,2013-03-31 00:19:00,
2013-03-30 19:24:00,35.3,32.1,29.94,NW,315,4.0,4.0,88,0.00,,,0.00,vanprod-2.3,2013-03-31 00:24:00,
2013-03-30 19:29:00,34.8,31.6,29.95,NNW,331,4.0,4.0,88,0.00,,,0.00,vanprod-2.3,2013-03-31 00:29:00,
2013-03-30 19:34:00,34.5,31.6,29.95,NNW,330,3.0,4.0,89,0.00,,,0.00,vanprod-2.3,2013-03-31 00:34:00,
2013-03-30 19:39:00,34.2,31.6,29.95,NNW,330,2.0,2.0,90,0.00,,,0.00,vanprod-2.3,2013-03-31 00:39:00,
2013-03-30 19:44:00,34.2,31.6,29.95,NNW,330,4.0,7.0,90,0.00,,,0.00,vanprod-2.3,2013-03-31 00:44:00,
2013-03-30 19:49:00,33.9,31.3,29.94,NNW,330,2.0,2.0,90,0.00,,,0.00,vanprod-2.3,2013-03-31 00:49:00,
2013-03-30 19:54:00,33.8,31.5,29.95,NNW,330,2.0,2.0,91,0.00,,,0.00,vanprod-2.3,2013-03-31 00:54:00,
2013-03-30 19:59:00,33.8,31.5,29.95,NNW,330,0.0,1.0,91,0.00,,,0.00,vanprod-2.3,2013-03-31 00:59:00,
2013-03-30 20:04:00,33.6,31.3,29.95,NNW,330,0.0,0.0,91,0.00,,,0.00,vanprod-2.3,2013-03-31 01:04:00,
2013-03-30 20:09:00,33.5,31.2,29.95,NNW,330,1.0,0.0,91,0.00,,,0.00,vanprod-2.3,2013-03-31 01:09:00,
2013-03-30 20:14:00,33.5,31.4,29.95,NNW,330,2.0,2.0,92,0.00,,,0.00,vanprod-2.3,2013-03-31 01:14:00,
2013-03-30 20:19:00,33.3,31.2,29.95,NNW,330,0.0,2.0,92,0.00,,,0.00,vanprod-2.3,2013-03-31 01:19:00,
2013-03-30 20:24:00,33.2,31.1,29.95,NNW,330,1.0,0.0,92,0.00,,,0.00,vanprod-2.3,2013-03-31 01:24:00,
2013-03-30 20:29:00,33.2,31.1,29.95,NNW,330,0.0,0.0,92,0.00,,,0.00,vanprod-2.3,2013-03-31 01:29:00,
2013-03-30 20:34:00,33.0,30.9,29.95,NNW,330,2.0,3.0,92,0.00,,,0.00,vanprod-2.3,2013-03-31 01:34:00,
2013-03-30 20:39:00,33.0,30.9,29.95,NNW,330,0.0,0.0,92,0.00,,,0.00,vanprod-2.3,2013-03-31 01:39:00,
2013-03-30 20:44:00,33.0,30.9,29.95,NNW,330,0.0,1.0,92,0.00,,,0.00,vanprod-2.3,2013-03-31 01:44:00,
2013-03-30 20:49:00,32.9,30.8,29.95,NNW,330,1.0,1.0,92,0.00,,,0.00,vanprod-2.3,2013-03-31 01:49:00,
2013-03-30 20:54:00,32.9,30.8,29.95,NNW,330,1.0,0.0,92,0.00,,,0.00,vanprod-2.3,2013-03-31 01:54:00,
2013-03-30 20:59:00,32.7,30.6,29.95,NNW,330,1.0,1.0,92,0.00,,,0.00,vanprod-2.3,2013-03-31 01:59:00,
2013-03-30 21:04:00,32.7,30.6,29.95,NNW,330,1.0,1.0,92,0.00,,,0.00,vanprod-2.3,2013-03-31 02:04:00,
2013-03-30 21:09:00,32.6,30.5,29.95,NNW,330,1.0,0.0,92,0.00,,,0.00,vanprod-2.3,2013-03-31 02:09:00,
2013-03-30 21:14:00,32.4,30.6,29.95,NNW,330,0.0,2.0,93,0.00,,,0.00,vanprod-2.3,2013-03-31 02:14:00,
2013-03-30 21:19:00,32.4,30.6,29.95,NNW,330,1.0,2.0,93,0.00,,,0.00,vanprod-2.3,2013-03-31 02:19:00,
2013-03-30 21:24:00,32.4,30.6,29.95,NNW,330,2.0,2.0,93,0.00,,,0.00,vanprod-2.3,2013-03-31 02:24:00,
2013-03-30 21:29:00,32.3,30.5,29.95,NNW,330,1.0,2.0,93,0.00,,,0.00,vanprod-2.3,2013-03-31 02:29:00,
2013-03-30 21:34:00,32.3,30.5,29.95,NNW,330,2.0,3.0,93,0.00,,,0.00,vanprod-2.3,2013-03-31 02:34:00,
2013-03-30 21:39:00,32.3,30.5,29.94,NNW,330,2.0,3.0,93,0.00,,,0.00,vanprod-2.3,2013-03-31 02:39:00,
2013-03-30 21:44:00,32.3,30.5,29.94,NNW,330,1.0,0.0,93,0.00,,,0.00,vanprod-2.3,2013-03-31 02:44:00,
2013-03-30 21:49:00,32.2,30.4,29.94,NNW,330,0.0,0.0,93,0.00,,,0.00,vanprod-2.3,2013-03-31 02:49:00,
2013-03-30 21:54:00,32.0,30.2,29.95,NNW,330,0.0,1.0,93,0.00,,,0.00,vanprod-2.3,2013-03-31 02:54:00,
2013-03-30 21:59:00,32.0,30.5,29.95,NNW,330,0.0,0.0,94,0.00,,,0.00,vanprod-2.3,2013-03-31 02:59:00,
2013-03-30 22:04:00,32.2,30.7,29.95,NNW,330,0.0,0.0,94,0.00,,,0.00,vanprod-2.3,2013-03-31 03:04:00,
2013-03-30 22:09:00,32.2,30.7,29.95,NNW,330,2.0,2.0,94,0.00,,,0.00,vanprod-2.3,2013-03-31 03:09:00,
2013-03-30 22:14:00,32.4,30.9,29.95,NNW,330,1.0,3.0,94,0.00,,,0.00,vanprod-2.3,2013-03-31 03:14:00,
2013-03-30 22:19:00,32.4,30.9,29.95,NNW,330,1.0,2.0,94,0.00,,,0.00,vanprod-2.3,2013-03-31 03:19:00,
2013-03-30 22:24:00,32.4,30.9,29.95,NNW,330,1.0,2.0,94,0.00,,,0.00,vanprod-2.3,2013-03-31 03:24:00,
2013-03-30 22:29:00,32.6,31.1,29.95,NNW,330,1.0,2.0,94,0.00,,,0.00,vanprod-2.3,2013-03-31 03:29:00,
2013-03-30 22:34:00,32.6,31.1,29.95,NNW,330,1.0,3.0,94,0.00,,,0.00,vanprod-2.3,2013-03-31 03:34:00,
2013-03-30 22:39:00,32.6,31.1,29.95,NNW,330,1.0,1.0,94,0.00,,,0.00,vanprod-2.3,2013-03-31 03:39:00,
2013-03-30 22:44:00,32.7,31.2,29.95,NNW,330,2.0,3.0,94,0.00,,,0.00,vanprod-2.3,2013-03-31 03:44:00,
2013-03-30 22:49:00,32.9,31.4,29.95,NNW,330,2.0,4.0,94,0.00,,,0.00,vanprod-2.3,2013-03-31 03:49:00,
2013-03-30 22:54:00,32.9,31.4,29.95,NNW,330,1.0,1.0,94,0.00,,,0.00,vanprod-2.3,2013-03-31 03:54:00,
2013-03-30 22:59:00,33.0,31.5,29.95,NNW,330,2.0,6.0,94,0.00,,,0.00,vanprod-2.3,2013-03-31 03:59:00,
2013-03-30 23:00:00,33.0,31.5,29.95,NNW,330,3.0,3.0,94,0.00,,,0.00,vanprod-2.3,2013-03-31 04:00:00,
2013-03-30 23:05:00,33.0,31.5,29.95,NNW,330,3.0,3.0,94,0.00,,,0.00,vanprod-2.3,2013-03-31 04:05:00,
2013-03-30 23:10:00,33.0,31.5,29.95,NNW,330,1.0,3.0,94,0.00,,,0.00,vanprod-2.3,2013-03-31 04:10:00,
2013-03-30 23:15:00,32.9,31.4,29.95,NNW,330,4.0,6.0,94,0.00,,,0.00,vanprod-2.3,2013-03-31 04:15:00,
2013-03-30 23:20:00,32.7,31.2,29.95,NNW,330,4.0,7.0,94,0.00,,,0.00,vanprod-2.3,2013-03-31 04:20:00,
2013-03-30 23:25:00,32.6,31.1,29.95,NW,326,3.0,3.0,94,0.00,,,0.00,vanprod-2.3,2013-03-31 04:25:00,
2013-03-30 23:30:00,32.4,30.9,29.95,NNW,330,2.0,4.0,94,0.00,,,0.00,vanprod-2.3,2013-03-31 04:30:00,
2013-03-30 23:35:00,32.3,30.8,29.95,NNW,337,5.0,6.0,94,0.00,,,0.00,vanprod-2.3,2013-03-31 04:35:00,
2013-03-30 23:40:00,32.0,30.7,29.95,NNW,335,6.0,10.0,95,0.00,,,0.00,vanprod-2.3,2013-03-31 04:40:00,
2013-03-30 23:45:00,31.9,30.6,29.95,NW,319,6.0,7.0,95,0.00,,,0.00,vanprod-2.3,2013-03-31 04:45:00,
2013-03-30 23:50:00,31.9,30.6,29.95,NW,318,4.0,7.0,95,0.00,,,0.00,vanprod-2.3,2013-03-31 04:50:00,
2013-03-30 23:55:00,31.9,30.9,29.95,NW,318,3.0,3.0,96,0.00,,,0.00,vanprod-2.3,2013-03-31 04:55:00,